{"data":{"norad_id":62490,"intl_designator":"2025-003D","name":"STARLINK-32332","alt_names":[],"object_type":"PAYLOAD","status":"ACTIVE","operator":null,"country":"US","launch_date":"2025-01-06","launch_site_code":"AFETR","launch_vehicle":null,"mission":null,"orbit_class":"UNKNOWN","rcs_meters":null,"size_class":null,"mass_kg":null,"dimensions":null,"purposes":["comms"],"wikipedia_slug":null,"has_3d_model":false,"image_url":null,"decayed_at":null,"tle_current":{"epoch":"2026-05-25T05:08:28.320288Z","epoch_age_seconds":67132,"freshness":"FRESH","line1":"1 62490U 25003D   26145.21421667  .00014240  00000+0  52585-3 0  9996","line2":"2 62490  42.9982 216.9186 0001505 280.4019  79.6663 15.27587270 78359","mean_motion":15.2758727,"eccentricity":0.0001505,"inclination_deg":42.9982,"raan_deg":216.9186,"arg_perigee_deg":280.4019,"mean_anomaly_deg":79.6663,"bstar":0.00052585,"rev_number":7835,"period_min":94.266300085101,"perigee_km":481.99472189938,"apogee_km":484.05993236185,"semimajor_km":6861.1643271306,"source":"CELESTRAK","updated_at":"2026-05-25T13:38:19.696721Z"}}}